| time (UTC) | temp F | wind direction | speed knots | gust knots | rain 1hr in | rain 24hr in | rain mn in | humidity % | barometer mb |
| 20260502170432 | 54 | 0 | 0.0 | 0.0 | 0.00 | 0.00 | 0.00 | 53 | 1013.0 |
| 20260502164214 | 54 | 0 | 0.0 | 0.9 | 0.00 | 0.00 | 0.00 | 52 | 1013.0 |
| 20260502163714 | 54 | 0 | 0.0 | 0.9 | 0.00 | 0.00 | 0.00 | 55 | 1013.0 |
| 20260502163214 | 54 | 0 | 0.0 | 1.7 | 0.00 | 0.00 | 0.00 | 53 | 1013.0 |
| 20260502162714 | 54 | 270 | 0.0 | 1.7 | 0.00 | 0.00 | 0.00 | 57 | 1013.1 |
| 20260502162439 | 54 | 0 | 0.0 | 0.0 | 0.00 | 0.00 | 0.00 | 55 | 1013.1 |
| 20260502161714 | 54 | 0 | 0.0 | 0.0 | 0.00 | 0.00 | 0.00 | 55 | 1013.0 |
| 20260502161215 | 54 | 0 | 0.0 | 0.9 | 0.00 | 0.00 | 0.00 | 55 | 1012.9 |
| 20260502160716 | 54 | 200 | 0.0 | 1.7 | 0.00 | 0.00 | 0.00 | 53 | 1013.0 |
| 20260502160201 | 54 | 0 | 0.0 | 1.7 | 0.00 | 0.00 | 0.00 | 54 | 1013.0 |
| 20260502151649 | 54 | 0 | 0.0 | 0.9 | 0.00 | 0.00 | 0.00 | 59 | 1013.4 |
| 20260502151147 | 54 | 0 | 0.0 | 0.9 | 0.00 | 0.00 | 0.00 | 59 | 1012.9 |
| 20260502150633 | 54 | 166 | 0.0 | 0.9 | 0.00 | 0.00 | 0.00 | 59 | 1013.0 |
| 20260502150133 | 54 | 232 | 0.0 | 0.9 | 0.00 | 0.00 | 0.00 | 61 | 1013.0 |
| 20260502140116 | 53 | 0 | 0.0 | 1.7 | 0.00 | 0.00 | 0.00 | 65 | 1013.1 |
| 20260502130603 | 53 | 0 | 0.0 | 0.9 | 0.00 | 0.00 | 0.00 | 70 | 1012.7 |
| 20260502130103 | 53 | 170 | 0.0 | 0.9 | 0.00 | 0.00 | 0.00 | 70 | 1012.7 |
| 20260502123807 | 52 | 0 | 0.0 | 0.9 | 0.00 | 0.00 | 0.00 | 75 | 1012.6 |
| 20260502123048 | 52 | 0 | 0.0 | 0.0 | 0.00 | 0.00 | 0.00 | 79 | 1012.6 |
| 20260502122809 | 52 | 0 | 0.0 | 0.0 | 0.00 | 0.00 | 0.00 | 79 | 1012.4 |
| 20260502122034 | 52 | 0 | 0.0 | 0.0 | 0.00 | 0.00 | 0.00 | 80 | 1012.4 |
| 20260502121535 | 52 | 0 | 0.0 | 0.9 | 0.00 | 0.00 | 0.00 | 80 | 1012.3 |
| 20260502121034 | 51 | 0 | 0.0 | 0.9 | 0.00 | 0.00 | 0.00 | 81 | 1012.2 |
| 20260502120536 | 51 | 0 | 0.0 | 0.0 | 0.00 | 0.00 | 0.00 | 83 | 1012.1 |
| 20260502115537 | 51 | 0 | 0.0 | 0.0 | 0.00 | 0.00 | 0.00 | 85 | 1012.1 |
| 20260502115036 | 51 | 0 | 0.0 | 0.0 | 0.00 | 0.00 | 0.00 | 86 | 1012.1 |
| 20260502114536 | 50 | 0 | 0.0 | 0.0 | 0.00 | 0.00 | 0.00 | 88 | 1012.1 |
| 20260502114258 | 50 | 0 | 0.0 | 0.0 | 0.00 | 0.00 | 0.00 | 89 | 1012.2 |
| 20260502113536 | 50 | 0 | 0.0 | 0.0 | 0.00 | 0.00 | 0.00 | 90 | 1012.2 |
| 20260502113034 | 50 | 0 | 0.0 | 0.0 | 0.00 | 0.00 | 0.00 | 91 | 1012.2 |
| 20260502112755 | 50 | 0 | 0.0 | 0.0 | 0.00 | 0.00 | 0.00 | 91 | 1012.2 |
| 20260502112035 | 50 | 0 | 0.0 | 0.0 | 0.00 | 0.00 | 0.00 | 91 | 1012.2 |
| 20260502111537 | 50 | 0 | 0.0 | 0.0 | 0.00 | 0.00 | 0.00 | 91 | 1012.1 |
| 20260502111019 | 49 | 0 | 0.0 | 0.0 | 0.00 | 0.00 | 0.00 | 91 | 1012.2 |
| 20260502110521 | 49 | 0 | 0.0 | 0.0 | 0.00 | 0.00 | 0.00 | 92 | 1012.2 |
| 20260502110019 | 49 | 0 | 0.0 | 0.0 | 0.00 | 0.00 | 0.00 | 93 | 1012.3 |
| 20260502105522 | 49 | 0 | 0.0 | 0.0 | 0.00 | 0.00 | 0.00 | 92 | 1012.4 |
| 20260502105019 | 49 | 0 | 0.0 | 0.0 | 0.00 | 0.00 | 0.00 | 92 | 1012.3 |
| 20260502104021 | 49 | 0 | 0.0 | 0.0 | 0.00 | 0.00 | 0.00 | 92 | 1012.3 |
| 20260502103521 | 49 | 0 | 0.0 | 0.0 | 0.00 | 0.00 | 0.00 | 93 | 1012.2 |
| 20260502103019 | 49 | 0 | 0.0 | 0.0 | 0.00 | 0.00 | 0.00 | 92 | 1012.1 |
| 20260502102520 | 49 | 0 | 0.0 | 0.0 | 0.00 | 0.00 | 0.00 | 92 | 1012.0 |
| 20260502102021 | 49 | 0 | 0.0 | 0.0 | 0.00 | 0.00 | 0.00 | 92 | 1012.0 |
| 20260502101738 | 49 | 0 | 0.0 | 0.0 | 0.00 | 0.00 | 0.00 | 92 | 1011.9 |
| 20260502101020 | 49 | 0 | 0.0 | 0.0 | 0.00 | 0.00 | 0.00 | 93 | 1011.8 |
| 20260502100509 | 49 | 0 | 0.0 | 0.0 | 0.00 | 0.00 | 0.00 | 92 | 1011.7 |
| 20260502091453 | 49 | 0 | 0.0 | 0.0 | 0.00 | 0.00 | 0.00 | 92 | 1011.5 |
| 20260502090453 | 49 | 0 | 0.0 | 0.0 | 0.00 | 0.00 | 0.00 | 92 | 1011.4 |
| 20260502071353 | 50 | 0 | 0.0 | 0.0 | 0.00 | 0.00 | 0.00 | 88 | 1011.0 |
| 20260502070854 | 50 | 0 | 0.0 | 0.9 | 0.00 | 0.00 | 0.00 | 88 | 1011.0 |
| 20260502070353 | 50 | 0 | 0.0 | 0.9 | 0.00 | 0.00 | 0.00 | 88 | 1010.9 |
| 20260502065853 | 50 | 0 | 0.0 | 0.0 | 0.00 | 0.00 | 0.00 | 87 | 1010.9 |
| 20260502065353 | 51 | 0 | 0.0 | 0.0 | 0.00 | 0.00 | 0.00 | 86 | 1011.0 |
| 20260502064854 | 51 | 0 | 0.0 | 0.0 | 0.00 | 0.00 | 0.00 | 86 | 1011.0 |
| 20260502064354 | 51 | 0 | 0.0 | 0.0 | 0.00 | 0.00 | 0.00 | 86 | 1011.0 |
| 20260502063854 | 51 | 0 | 0.0 | 0.0 | 0.00 | 0.00 | 0.00 | 86 | 1011.0 |
| 20260502063616 | 51 | 0 | 0.0 | 0.9 | 0.00 | 0.00 | 0.00 | 86 | 1011.0 |
| 20260502062854 | 51 | 0 | 0.0 | 0.9 | 0.00 | 0.00 | 0.00 | 85 | 1011.0 |
| 20260502062354 | 51 | 0 | 0.0 | 0.0 | 0.00 | 0.00 | 0.00 | 85 | 1010.9 |
| 20260502062100 | 51 | 0 | 0.0 | 0.0 | 0.00 | 0.00 | 0.00 | 84 | 1010.9 |
| 20260502061322 | 51 | 0 | 0.0 | 0.9 | 0.00 | 0.00 | 0.00 | 84 | 1011.0 |
| 20260502060323 | 52 | 0 | 0.0 | 0.0 | 0.00 | 0.00 | 0.00 | 83 | 1011.1 |
| 20260502055824 | 52 | 0 | 0.0 | 0.0 | 0.00 | 0.00 | 0.00 | 83 | 1011.1 |
| 20260502055324 | 52 | 0 | 0.0 | 0.0 | 0.00 | 0.00 | 0.00 | 83 | 1011.1 |
| 20260502054824 | 52 | 0 | 0.0 | 0.0 | 0.00 | 0.00 | 0.00 | 83 | 1011.2 |
| 20260502054323 | 52 | 0 | 0.0 | 0.0 | 0.00 | 0.00 | 0.00 | 83 | 1011.3 |
| 20260502053823 | 52 | 0 | 0.0 | 0.9 | 0.00 | 0.00 | 0.00 | 82 | 1011.3 |
| 20260502053324 | 52 | 0 | 0.0 | 0.9 | 0.00 | 0.00 | 0.00 | 82 | 1011.4 |
| 20260502052823 | 52 | 0 | 0.0 | 0.9 | 0.00 | 0.00 | 0.00 | 82 | 1011.3 |
| 20260502052311 | 52 | 0 | 0.0 | 0.0 | 0.00 | 0.00 | 0.00 | 81 | 1011.4 |
| 20260502051811 | 53 | 0 | 0.0 | 0.9 | 0.00 | 0.00 | 0.00 | 81 | 1011.4 |
| 20260502051310 | 53 | 0 | 0.0 | 0.9 | 0.00 | 0.00 | 0.00 | 81 | 1011.4 |
| 20260502050755 | 53 | 301 | 0.0 | 0.9 | 0.00 | 0.00 | 0.00 | 80 | 1011.5 |
| 20260502050255 | 53 | 0 | 0.0 | 0.9 | 0.00 | 0.00 | 0.00 | 80 | 1011.6 |
| 20260502045756 | 53 | 0 | 0.0 | 0.0 | 0.00 | 0.00 | 0.00 | 79 | 1011.6 |
| 20260502045255 | 53 | 0 | 0.0 | 0.0 | 0.00 | 0.00 | 0.00 | 79 | 1011.7 |
| 20260502044755 | 53 | 0 | 0.0 | 0.0 | 0.00 | 0.00 | 0.00 | 79 | 1011.7 |
| 20260502044255 | 53 | 0 | 0.0 | 0.9 | 0.00 | 0.00 | 0.00 | 78 | 1011.8 |
| 20260502043256 | 54 | 262 | 0.0 | 0.9 | 0.00 | 0.00 | 0.00 | 78 | 1011.8 |
| 20260502043020 | 54 | 0 | 0.0 | 0.9 | 0.00 | 0.00 | 0.00 | 77 | 1011.9 |
| 20260502042522 | 54 | 0 | 0.0 | 0.9 | 0.00 | 0.00 | 0.00 | 77 | 1011.9 |
| 20260502041756 | 54 | 0 | 0.0 | 0.9 | 0.00 | 0.00 | 0.00 | 78 | 1011.9 |
| 20260502041257 | 54 | 0 | 0.0 | 0.9 | 0.00 | 0.00 | 0.00 | 77 | 1011.9 |
| 20260502040755 | 54 | 0 | 0.0 | 1.7 | 0.00 | 0.00 | 0.00 | 77 | 1011.8 |
| 20260502040255 | 54 | 0 | 0.0 | 1.7 | 0.00 | 0.00 | 0.00 | 77 | 1011.8 |
| 20260502040014 | 54 | 0 | 0.0 | 1.7 | 0.00 | 0.00 | 0.00 | 77 | 1011.7 |
| 20260502035506 | 54 | 0 | 0.0 | 1.7 | 0.00 | 0.00 | 0.00 | 76 | 1011.7 |
| 20260502034741 | 54 | 324 | 0.0 | 1.7 | 0.00 | 0.00 | 0.00 | 76 | 1011.7 |
| 20260502034243 | 54 | 0 | 0.0 | 0.9 | 0.00 | 0.00 | 0.00 | 76 | 1011.7 |
| 20260502034004 | 54 | 20 | 0.0 | 0.9 | 0.00 | 0.00 | 0.00 | 76 | 1011.7 |
| 20260502033241 | 55 | 0 | 0.0 | 0.9 | 0.00 | 0.00 | 0.00 | 75 | 1011.7 |
| 20260502032742 | 55 | 27 | 0.0 | 1.7 | 0.00 | 0.00 | 0.00 | 75 | 1011.7 |
| 20260502032242 | 55 | 51 | 0.0 | 1.7 | 0.00 | 0.00 | 0.00 | 75 | 1011.7 |
| 20260502031741 | 55 | 0 | 0.0 | 0.9 | 0.00 | 0.00 | 0.00 | 74 | 1011.6 |
| 20260502031506 | 55 | 53 | 0.0 | 0.9 | 0.00 | 0.00 | 0.00 | 74 | 1011.6 |
| 20260502030742 | 55 | 0 | 0.0 | 0.9 | 0.00 | 0.00 | 0.00 | 74 | 1011.5 |
| 20260502030501 | 55 | 294 | 0.0 | 2.6 | 0.00 | 0.00 | 0.00 | 73 | 1011.4 |
| 20260502030005 | 55 | 0 | 0.0 | 2.6 | 0.00 | 0.00 | 0.00 | 73 | 1011.3 |
| 20260502025243 | 55 | 0 | 0.0 | 1.7 | 0.00 | 0.00 | 0.00 | 72 | 1011.4 |
| 20260502024743 | 56 | 23 | 0.0 | 0.9 | 0.00 | 0.00 | 0.00 | 72 | 1011.2 |
| 20260502024243 | 56 | 0 | 0.0 | 0.9 | 0.00 | 0.00 | 0.00 | 71 | 1011.3 |
| 20260502023725 | 56 | 0 | 0.0 | 1.7 | 0.00 | 0.00 | 0.00 | 71 | 1011.3 |
| 20260502023225 | 56 | 0 | 0.0 | 1.7 | 0.00 | 0.00 | 0.00 | 70 | 1011.5 |
| 20260502022726 | 56 | 0 | 0.0 | 1.7 | 0.00 | 0.00 | 0.00 | 70 | 1011.4 |
| 20260502022449 | 56 | 27 | 0.0 | 1.7 | 0.00 | 0.00 | 0.00 | 69 | 1011.6 |
| 20260502021726 | 57 | 0 | 0.0 | 1.7 | 0.00 | 0.00 | 0.00 | 69 | 1011.6 |
| 20260502021449 | 57 | 356 | 0.0 | 0.9 | 0.00 | 0.00 | 0.00 | 69 | 1011.5 |
| 20260502020944 | 57 | 0 | 0.0 | 0.9 | 0.00 | 0.00 | 0.00 | 68 | 1011.5 |
| 20260502020226 | 57 | 0 | 0.0 | 1.7 | 0.00 | 0.00 | 0.00 | 68 | 1011.4 |
| 20260502015727 | 57 | 288 | 0.0 | 1.7 | 0.00 | 0.00 | 0.00 | 67 | 1011.5 |
| 20260502015225 | 58 | 18 | 0.0 | 0.9 | 0.00 | 0.00 | 0.00 | 66 | 1011.5 |
| 20260502014713 | 58 | 54 | 0.9 | 3.5 | 0.00 | 0.00 | 0.00 | 66 | 1011.4 |
| 20260502014212 | 58 | 41 | 0.9 | 3.5 | 0.00 | 0.00 | 0.00 | 65 | 1011.4 |
| 20260502013659 | 58 | 1 | 0.0 | 1.7 | 0.00 | 0.00 | 0.00 | 65 | 1011.3 |
| 20260502013421 | 58 | 0 | 0.0 | 0.9 | 0.00 | 0.00 | 0.00 | 65 | 1011.1 |
| 20260502012847 | 58 | 0 | 0.0 | 1.7 | 0.00 | 0.00 | 0.00 | 64 | 1011.1 |
| 20260502012127 | 57 | 40 | 0.0 | 1.7 | 0.00 | 0.00 | 0.00 | 64 | 1011.1 |
| 20260502011627 | 57 | 0 | 0.0 | 1.7 | 0.00 | 0.00 | 0.00 | 64 | 1011.0 |
| 20260502011127 | 57 | 37 | 0.9 | 1.7 | 0.00 | 0.00 | 0.00 | 65 | 1010.9 |
| 20260502010627 | 57 | 31 | 0.0 | 1.7 | 0.00 | 0.00 | 0.00 | 65 | 1010.9 |
| 20260502010128 | 57 | 13 | 0.0 | 0.9 | 0.00 | 0.00 | 0.00 | 65 | 1010.8 |
| 20260502005627 | 57 | 53 | 0.0 | 0.9 | 0.00 | 0.00 | 0.00 | 65 | 1010.8 |
| 20260502005127 | 58 | 0 | 0.0 | 0.0 | 0.00 | 0.00 | 0.00 | 63 | 1010.7 |
| 20260502004851 | 58 | 0 | 0.0 | 0.0 | 0.00 | 0.00 | 0.00 | 63 | 1010.6 |
| 20260502004127 | 58 | 0 | 0.0 | 0.0 | 0.00 | 0.00 | 0.00 | 62 | 1010.4 |
| 20260502003127 | 59 | 0 | 0.0 | 0.0 | 0.00 | 0.00 | 0.00 | 59 | 1010.3 |
| 20260502002850 | 60 | 0 | 0.0 | 0.0 | 0.00 | 0.00 | 0.00 | 59 | 1010.3 |
| 20260502002128 | 60 | 0 | 0.0 | 0.0 | 0.00 | 0.00 | 0.00 | 58 | 1010.3 |
| 20260502001627 | 60 | 0 | 0.0 | 0.0 | 0.00 | 0.00 | 0.00 | 56 | 1010.2 |
| 20260502001114 | 61 | 0 | 0.0 | 0.0 | 0.00 | 0.00 | 0.00 | 55 | 1010.2 |
| 20260502000842 | 61 | 0 | 0.0 | 0.0 | 0.00 | 0.00 | 0.00 | 54 | 1010.3 |
| 20260502000115 | 61 | 0 | 0.0 | 0.9 | 0.00 | 0.00 | 0.00 | 54 | 1010.3 |
| 20260501235835 | 62 | 0 | 0.0 | 0.9 | 0.00 | 0.00 | 0.00 | 52 | 1010.3 |
| 20260501235115 | 62 | 0 | 0.0 | 0.9 | 0.00 | 0.00 | 0.00 | 52 | 1010.3 |
| 20260501234614 | 62 | 57 | 0.0 | 0.9 | 0.00 | 0.00 | 0.00 | 51 | 1010.2 |
| 20260501234114 | 63 | 0 | 0.0 | 0.9 | 0.00 | 0.00 | 0.00 | 49 | 1010.2 |
| 20260501233615 | 63 | 0 | 0.0 | 0.9 | 0.00 | 0.00 | 0.00 | 49 | 1010.1 |
| 20260501233100 | 63 | 33 | 0.0 | 0.9 | 0.00 | 0.00 | 0.00 | 49 | 1010.1 |
| 20260501232559 | 63 | 0 | 0.0 | 0.9 | 0.00 | 0.00 | 0.00 | 47 | 1010.0 |
| 20260501232100 | 64 | 0 | 0.0 | 0.9 | 0.00 | 0.00 | 0.00 | 46 | 1010.0 |
| 20260501231559 | 64 | 0 | 0.0 | 1.7 | 0.00 | 0.00 | 0.00 | 45 | 1010.0 |
| 20260501231059 | 64 | 35 | 0.0 | 1.7 | 0.00 | 0.00 | 0.00 | 46 | 1010.1 |
| 20260501230600 | 64 | 280 | 0.9 | 1.7 | 0.00 | 0.00 | 0.00 | 45 | 1010.0 |
| 20260501230046 | 64 | 312 | 0.9 | 1.7 | 0.00 | 0.00 | 0.00 | 45 | 1010.0 |
| 20260501225530 | 65 | 0 | 0.9 | 1.7 | 0.00 | 0.00 | 0.00 | 45 | 1010.1 |
| 20260501225029 | 65 | 48 | 0.9 | 2.6 | 0.00 | 0.00 | 0.00 | 45 | 1010.1 |
| 20260501224529 | 65 | 0 | 0.9 | 2.6 | 0.00 | 0.00 | 0.00 | 45 | 1010.2 |
| 20260501224030 | 65 | 58 | 0.9 | 1.7 | 0.00 | 0.00 | 0.00 | 45 | 1010.2 |
| 20260501223529 | 65 | 77 | 0.9 | 2.6 | 0.00 | 0.00 | 0.00 | 44 | 1010.3 |
| 20260501223029 | 65 | 0 | 0.9 | 2.6 | 0.00 | 0.00 | 0.00 | 43 | 1010.3 |
| 20260501222530 | 66 | 64 | 0.9 | 2.6 | 0.00 | 0.00 | 0.00 | 43 | 1010.4 |
| 20260501222254 | 66 | 92 | 0.9 | 2.6 | 0.00 | 0.00 | 0.00 | 43 | 1010.3 |
| 20260501221529 | 66 | 299 | 0.9 | 2.6 | 0.00 | 0.00 | 0.00 | 43 | 1010.3 |
| 20260501221030 | 66 | 289 | 0.9 | 2.6 | 0.00 | 0.00 | 0.00 | 42 | 1010.3 |
| 20260501220529 | 66 | 31 | 0.9 | 2.6 | 0.00 | 0.00 | 0.00 | 41 | 1010.3 |
| 20260501220029 | 66 | 0 | 0.9 | 1.7 | 0.00 | 0.00 | 0.00 | 40 | 1010.3 |
| 20260501215530 | 66 | 320 | 0.9 | 1.7 | 0.00 | 0.00 | 0.00 | 40 | 1010.3 |
| 20260501215017 | 66 | 60 | 0.9 | 1.7 | 0.00 | 0.00 | 0.00 | 40 | 1010.3 |
| 20260501214732 | 66 | 89 | 0.0 | 1.7 | 0.00 | 0.00 | 0.00 | 41 | 1010.2 |
| 20260501214015 | 66 | 0 | 0.0 | 1.7 | 0.00 | 0.00 | 0.00 | 40 | 1010.2 |
| 20260501213516 | 66 | 71 | 0.9 | 1.7 | 0.00 | 0.00 | 0.00 | 40 | 1010.2 |
| 20260501213017 | 66 | 35 | 0.9 | 1.7 | 0.00 | 0.00 | 0.00 | 39 | 1010.2 |
| 20260501212516 | 66 | 343 | 0.9 | 1.7 | 0.00 | 0.00 | 0.00 | 40 | 1010.2 |
| 20260501212016 | 66 | 95 | 0.9 | 1.7 | 0.00 | 0.00 | 0.00 | 42 | 1010.2 |
| 20260501211517 | 66 | 0 | 0.9 | 1.7 | 0.00 | 0.00 | 0.00 | 39 | 1010.2 |
| 20260501211002 | 66 | 287 | 0.9 | 1.7 | 0.00 | 0.00 | 0.00 | 42 | 1010.3 |
| 20260501210502 | 66 | 0 | 0.9 | 1.7 | 0.00 | 0.00 | 0.00 | 40 | 1010.2 |
| 20260501205947 | 66 | 319 | 0.0 | 1.7 | 0.00 | 0.00 | 0.00 | 41 | 1010.3 |
| 20260501205447 | 66 | 0 | 0.9 | 1.7 | 0.00 | 0.00 | 0.00 | 41 | 1010.3 |
| 20260501204948 | 67 | 285 | 0.9 | 1.7 | 0.00 | 0.00 | 0.00 | 38 | 1010.3 |
| 20260501204448 | 66 | 0 | 0.9 | 2.6 | 0.00 | 0.00 | 0.00 | 40 | 1010.4 |
| 20260501203931 | 66 | 63 | 1.7 | 3.5 | 0.00 | 0.00 | 0.00 | 42 | 1010.4 |
| 20260501203433 | 67 | 321 | 0.9 | 3.5 | 0.00 | 0.00 | 0.00 | 39 | 1010.5 |
| 20260501202930 | 67 | 193 | 0.9 | 2.6 | 0.00 | 0.00 | 0.00 | 42 | 1010.6 |
| 20260501202431 | 67 | 281 | 0.9 | 2.6 | 0.00 | 0.00 | 0.00 | 38 | 1010.7 |
| 20260501202155 | 67 | 63 | 0.9 | 1.7 | 0.00 | 0.00 | 0.00 | 40 | 1010.7 |
| 20260501201432 | 67 | 83 | 0.9 | 1.7 | 0.00 | 0.00 | 0.00 | 40 | 1010.8 |
| 20260501201155 | 67 | 0 | 0.0 | 1.7 | 0.00 | 0.00 | 0.00 | 39 | 1010.9 |
| 20260501200431 | 67 | 34 | 0.9 | 1.7 | 0.00 | 0.00 | 0.00 | 40 | 1010.9 |
| 20260501195931 | 67 | 23 | 0.9 | 1.7 | 0.00 | 0.00 | 0.00 | 38 | 1011.1 |
| 20260501195431 | 66 | 0 | 0.9 | 2.6 | 0.00 | 0.00 | 0.00 | 41 | 1011.2 |
| 20260501195154 | 66 | 96 | 0.9 | 2.6 | 0.00 | 0.00 | 0.00 | 38 | 1011.2 |
| 20260501194655 | 66 | 39 | 0.9 | 1.7 | 0.00 | 0.00 | 0.00 | 42 | 1011.3 |
| 20260501193933 | 66 | 322 | 0.9 | 1.7 | 0.00 | 0.00 | 0.00 | 40 | 1011.3 |
| 20260501193431 | 66 | 214 | 0.0 | 1.7 | 0.00 | 0.00 | 0.00 | 40 | 1011.3 |
| 20260501192932 | 66 | 315 | 0.0 | 1.7 | 0.00 | 0.00 | 0.00 | 40 | 1011.4 |
| 20260501192418 | 66 | 83 | 0.9 | 2.6 | 0.00 | 0.00 | 0.00 | 41 | 1011.6 |
| 20260501191903 | 66 | 42 | 1.7 | 5.2 | 0.00 | 0.00 | 0.00 | 40 | 1011.6 |
| 20260501191350 | 66 | 60 | 0.9 | 5.2 | 0.00 | 0.00 | 0.00 | 41 | 1011.8 |
| 20260501190848 | 65 | 298 | 0.9 | 2.6 | 0.00 | 0.00 | 0.00 | 40 | 1011.9 |
| 20260501190350 | 65 | 87 | 0.9 | 1.7 | 0.00 | 0.00 | 0.00 | 41 | 1011.9 |
| 20260501185834 | 65 | 102 | 0.9 | 1.7 | 0.00 | 0.00 | 0.00 | 41 | 1012.0 |
| 20260501185332 | 65 | 304 | 0.9 | 1.7 | 0.00 | 0.00 | 0.00 | 39 | 1012.1 |
| 20260501184832 | 65 | 17 | 0.9 | 2.6 | 0.00 | 0.00 | 0.00 | 40 | 1012.3 |
| 20260501184331 | 65 | 64 | 0.9 | 2.6 | 0.00 | 0.00 | 0.00 | 40 | 1012.4 |
| 20260501183832 | 65 | 28 | 0.9 | 2.6 | 0.00 | 0.00 | 0.00 | 38 | 1012.4 |
| 20260501183320 | 65 | 41 | 0.9 | 2.6 | 0.00 | 0.00 | 0.00 | 42 | 1012.6 |
| 20260501182819 | 65 | 247 | 0.9 | 1.7 | 0.00 | 0.00 | 0.00 | 41 | 1012.5 |
| 20260501182321 | 65 | 37 | 0.9 | 1.7 | 0.00 | 0.00 | 0.00 | 41 | 1012.5 |
| 20260501182038 | 65 | 166 | 0.9 | 1.7 | 0.00 | 0.00 | 0.00 | 42 | 1012.5 |
| 20260501181319 | 65 | 0 | 0.9 | 1.7 | 0.00 | 0.00 | 0.00 | 42 | 1012.7 |
| 20260501180819 | 64 | 255 | 0.9 | 2.6 | 0.00 | 0.00 | 0.00 | 42 | 1012.9 |
| 20260501180304 | 64 | 57 | 0.9 | 2.6 | 0.00 | 0.00 | 0.00 | 43 | 1013.0 |
| 20260501175806 | 64 | 359 | 0.9 | 2.6 | 0.00 | 0.00 | 0.00 | 41 | 1013.0 |
| 20260501175306 | 64 | 0 | 0.9 | 1.7 | 0.00 | 0.00 | 0.00 | 39 | 1012.9 |
| 20260501174750 | 64 | 234 | 0.9 | 3.5 | 0.00 | 0.00 | 0.00 | 41 | 1013.1 |
| 20260501174250 | 64 | 26 | 0.9 | 3.5 | 0.00 | 0.00 | 0.00 | 41 | 1013.2 |
| 20260501173749 | 64 | 50 | 0.9 | 1.7 | 0.00 | 0.00 | 0.00 | 44 | 1013.2 |
| 20260501173234 | 64 | 194 | 0.9 | 1.7 | 0.00 | 0.00 | 0.00 | 41 | 1013.2 |
| 20260501172735 | 64 | 25 | 0.9 | 1.7 | 0.00 | 0.00 | 0.00 | 42 | 1013.1 |
| 20260501172234 | 64 | 37 | 0.9 | 1.7 | 0.00 | 0.00 | 0.00 | 43 | 1013.3 |